| time (UTC) | temp F | wind direction | speed knots | gust knots | rain 1hr in | rain 24hr in | rain mn in | humidity % | barometer mb |
| 20260505034558 | 62 | 187 | 3.5 | 8.7 | 0.00 | 0.00 | 0.00 | 60 | 1000.0 |
| 20260505033028 | 63 | 182 | 2.6 | 7.8 | 0.00 | 0.00 | 0.00 | 59 | 1000.0 |
| 20260505031530 | 63 | 223 | 6.1 | 10.4 | 0.00 | 0.00 | 0.00 | 58 | 1000.2 |
| 20260505030032 | 63 | 193 | 7.0 | 14.8 | 0.00 | 0.00 | 0.00 | 54 | 1000.3 |
| 20260505024527 | 62 | 172 | 3.5 | 6.1 | 0.00 | 0.00 | 0.00 | 52 | 1000.0 |
| 20260505023030 | 62 | 167 | 2.6 | 5.2 | 0.00 | 0.00 | 0.00 | 52 | 999.9 |
| 20260505021527 | 63 | 192 | 1.7 | 4.3 | 0.00 | 0.00 | 0.00 | 48 | 1000.0 |
| 20260505020052 | 64 | 208 | 1.7 | 6.1 | 0.00 | 0.00 | 0.00 | 47 | 1000.2 |
| 20260505014605 | 63 | 196 | 2.6 | 6.1 | 0.00 | 0.00 | 0.00 | 47 | 1000.3 |
| 20260505013050 | 63 | 232 | 3.5 | 6.1 | 0.00 | 0.00 | 0.00 | 48 | 1000.4 |
| 20260505011549 | 64 | 196 | 0.9 | 3.5 | 0.00 | 0.00 | 0.00 | 47 | 1000.2 |
| 20260505010048 | 65 | 211 | 2.6 | 7.8 | 0.00 | 0.00 | 0.00 | 46 | 1000.2 |
| 20260505004548 | 65 | 224 | 1.7 | 7.0 | 0.00 | 0.00 | 0.00 | 44 | 1000.2 |
| 20260505003044 | 66 | 217 | 3.5 | 6.1 | 0.00 | 0.00 | 0.00 | 43 | 1000.2 |
| 20260505001556 | 68 | 230 | 3.5 | 8.7 | 0.00 | 0.00 | 0.00 | 40 | 1000.2 |
| 20260505000058 | 69 | 240 | 3.5 | 10.4 | 0.00 | 0.00 | 0.00 | 37 | 1000.3 |
| 20260504234602 | 70 | 244 | 5.2 | 12.2 | 0.00 | 0.01 | 0.00 | 36 | 1000.3 |
| 20260504233042 | 71 | 269 | 5.2 | 11.3 | 0.00 | 0.01 | 0.00 | 35 | 1000.2 |
| 20260504231540 | 71 | 244 | 6.1 | 9.6 | 0.00 | 0.01 | 0.00 | 34 | 1000.1 |
| 20260504230039 | 72 | 296 | 5.2 | 12.2 | 0.00 | 0.01 | 0.00 | 33 | 1000.2 |
| 20260504224541 | 72 | 263 | 6.1 | 12.2 | 0.00 | 0.01 | 0.00 | 33 | 1000.2 |
| 20260504223041 | 73 | 242 | 4.3 | 13.9 | 0.00 | 0.01 | 0.00 | 33 | 1000.1 |
| 20260504221537 | 73 | 250 | 9.6 | 17.4 | 0.00 | 0.01 | 0.00 | 31 | 1000.1 |
| 20260504220032 | 74 | 225 | 9.6 | 18.2 | 0.00 | 0.01 | 0.00 | 29 | 1000.0 |
| 20260504214529 | 74 | 260 | 10.4 | 18.2 | 0.00 | 0.01 | 0.00 | 29 | 1000.2 |
| 20260504213044 | 74 | 259 | 7.8 | 24.3 | 0.00 | 0.01 | 0.00 | 30 | 1000.2 |
| 20260504211524 | 74 | 284 | 8.7 | 19.1 | 0.00 | 0.01 | 0.00 | 32 | 1000.2 |
| 20260504210026 | 74 | 207 | 10.4 | 19.1 | 0.00 | 0.01 | 0.00 | 32 | 1000.4 |
| 20260504204523 | 74 | 213 | 9.6 | 24.3 | 0.00 | 0.01 | 0.00 | 33 | 1000.4 |
| 20260504203016 | 74 | 207 | 12.2 | 22.6 | 0.00 | 0.01 | 0.00 | 33 | 1000.6 |
| 20260504201522 | 74 | 241 | 11.3 | 27.8 | 0.00 | 0.01 | 0.00 | 34 | 1000.8 |
| 20260504200016 | 73 | 244 | 12.2 | 20.9 | 0.00 | 0.01 | 0.00 | 35 | 1000.8 |
| 20260504194511 | 73 | 261 | 13.0 | 20.0 | 0.00 | 0.01 | 0.00 | 35 | 1001.1 |
| 20260504193049 | 73 | 240 | 11.3 | 21.7 | 0.00 | 0.01 | 0.00 | 34 | 1001.3 |
| 20260504191536 | 73 | 237 | 10.4 | 20.9 | 0.00 | 0.01 | 0.00 | 38 | 1001.5 |
| 20260504190031 | 72 | 235 | 8.7 | 20.0 | 0.00 | 0.01 | 0.00 | 39 | 1001.8 |
| 20260504184529 | 71 | 267 | 10.4 | 18.2 | 0.00 | 0.01 | 0.00 | 41 | 1001.9 |
| 20260504183026 | 71 | 233 | 10.4 | 19.1 | 0.00 | 0.01 | 0.00 | 40 | 1002.1 |
| 20260504181523 | 70 | 219 | 13.9 | 20.9 | 0.00 | 0.01 | 0.00 | 42 | 1002.4 |
| 20260504180051 | 69 | 230 | 13.0 | 22.6 | 0.00 | 0.01 | 0.00 | 43 | 1002.6 |
| 20260504174550 | 69 | 238 | 7.8 | 19.1 | 0.00 | 0.01 | 0.00 | 45 | 1002.5 |
| 20260504173025 | 69 | 201 | 10.4 | 19.1 | 0.00 | 0.01 | 0.00 | 45 | 1002.7 |
| 20260504171519 | 68 | 237 | 9.6 | 19.1 | 0.00 | 0.01 | 0.00 | 45 | 1002.7 |
| 20260504081512 | 51 | 221 | 7.0 | 13.9 | 0.00 | 0.01 | 0.00 | 58 | 1005.0 |
| 20260504050007 | 53 | 240 | 8.7 | 14.8 | 0.00 | 0.01 | 0.00 | 54 | 1006.4 |
| 20260504044504 | 53 | 282 | 7.8 | 17.4 | 0.00 | 0.01 | 0.00 | 53 | 1006.5 |
| 20260504043101 | 54 | 261 | 8.7 | 15.6 | 0.00 | 0.01 | 0.00 | 53 | 1006.5 |
| 20260504041555 | 54 | 252 | 7.0 | 13.9 | 0.00 | 0.01 | 0.00 | 53 | 1006.5 |
| 20260504040052 | 54 | 227 | 7.0 | 16.5 | 0.00 | 0.01 | 0.00 | 53 | 1006.4 |